Miscellaneous Local Product
Issued by NWS North Platte, NE

Home | Current Version | Previous Version | Text Only | Print | Product List | Glossary On
Versions: 1 2 3 4 5 6 7 8 9 10 11 12 13 14 15 16 17 18 19 20 21 22 23 24 25 26 27 28 29 30 31 32 33 34 35 36 37 38 39 40 41 42 43 44 45 46 47 48 49 50
000
AXUS43 KLBF 260910
MISLBF


WESTERN AND NORTH CENTRAL NEBRASKA HOURLY WEATHER ROUNDUP
NATIONAL WEATHER SERVICE NORTH PLATTE NE
400 AM CDT FRI MAY 26 2017

NOTE: "FAIR" INDICATES FEW OR NO CLOUDS BELOW 12,000 FEET WITH NO
SIGNIFICANT WEATHER AND/OR OBSTRUCTIONS TO VISIBILITY.

NOTE: STATIONS NOT REPORTING VARIABLES SUCH AS SKY/WEATHER OR
PRESSURE ARE PROVIDED BY RAWS AND APRS NETWORKS AND ARE NOT UNDER
NATIONAL WEATHER SERVICE QUALITY CONTROL.

...OBSERVATIONS IN AND NEAR THE EASTERN PANHANDLE OF NEBRASKA...

CITY           SKY/WX    TMP DP  RH WIND       PRES   REMARKS
PINE RIDGE     MOCLDY    43  40  89 W3        29.89R
GORDON         FAIR      45  38  77 CALM      29.87R
CHADRON        PTCLDY    45  38  76 CALM      29.89R
ALLIANCE       CLOUDY    46  41  82 NW9       29.89R
SIDNEY         CLOUDY    46  42  86 NW10      29.91R
CRESCENT LAKE    N/A     47  43  87 NW9         N/A
$$

...OBSERVATIONS IN NORTHERN NEBRASKA AND FAR SOUTHERN SOUTH DAKOTA...

CITY           SKY/WX    TMP DP  RH WIND       PRES   REMARKS
WINNER         FAIR      54  44  69 W12       29.79R
VALENTINE      PTCLDY    51  40  65 NW6       29.83R
THEDFORD       CLOUDY    53  43  68 N8        29.83R
AINSWORTH      MOCLDY    54  44  68 N16       29.80R
O`NEILL        MOCLDY    57  44  59 NW15G21   29.74R
ORD            CLOUDY    57  52  83 NW14      29.70R
BROKEN BOW     CLOUDY    59  49  69 N17       29.76R
VALENTINE NWR    N/A     53  41  63 N10G17      N/A
HALSEY           N/A     55  44  66 NW6G17      N/A
BUTTE            N/A     56  46  68 NW15        N/A
CHAMBERS         N/A     57  45  65 N3          N/A
EWING            N/A     59  48  67 N13G20      N/A
$$

...OBSERVATIONS IN SOUTHWEST NEBRASKA AND FAR NORTHEAST COLORADO...

CITY           SKY/WX    TMP DP  RH WIND       PRES   REMARKS
WRAY           CLOUDY    52  50  93 SW6       29.85R
IMPERIAL       CLOUDY    56  52  86 NW12      29.83R
OGALLALA       CLOUDY    55  47  75 NE9G18    29.85R
NORTH PLATTE   MOCLDY    55  53  93 NW7G20    29.82R
MCCOOK         CLOUDY    59  54  83 NW7       29.77R
LEXINGTON      MOCLDY    60  54  82 N7        29.74R
STAPLETON        N/A     53  46  77 CALM        N/A
GOTHENBURG       N/A     62  51  67 N7          N/A
CALLAWAY         N/A     59  52  76 NE5         N/A
$$

...OBSERVATIONS IN CENTRAL LINCOLN COUNTY AREA...

CITY           SKY/WX    TMP DP  RH WIND       PRES   REMARKS
N.P. AIRPORT   MOCLDY    55  53  93 NW7G20    29.82R
N.P. DOWNTOWN    N/A     56  48  75 N6          N/A
N.P. SOUTHEAST   N/A     56  50  80 N6          N/A
N.P. HILLCREST   N/A     55  47  76 N13         N/A
$$

...SOME OBSERVATIONS FROM AROUND THE REGION...

CITY           SKY/WX    TMP DP  RH WIND       PRES   REMARKS
DENVER         CLOUDY    46  43  89 SW8       29.95R
LIMON          LGT RAIN  47  46  97 NW15      29.97R
ASPEN          LGT RAIN  45  42  89 VRB7      30.06R
LARAMIE        CLEAR     34  31  88 SE8       29.96R WCI  27
CASPER         CLOUDY    44  37  76 E8        29.94S
CHEYENNE       CLEAR     39  35  86 NW6       29.97R WCI  35
SCOTTSBLUFF    PTCLDY    47  35  63 NW10      29.93R
GRAND ISLAND   CLOUDY    59  56  89 N3        29.67R
OMAHA          CLOUDY    65  55  70 SE5       29.64R
SIOUX FALLS    CLOUDY    53  51  93 NW3       29.66R
PIERRE         CLEAR     52  42  69 W14       29.76R
RAPID CITY     PTCLDY    43  35  73 CALM      29.86R
BISMARCK       CLEAR     51  43  74 W6        29.67S
KANSAS CITY    LGT RAIN  65  60  84 SE22G29   29.55F
HILL CITY      PTCLDY    57  54  89 W6        29.71R
WICHITA        PTCLDY    67  61  81 NE9       29.57S
DODGE CITY     CLEAR     56  55  97 NW15G23   29.71R
OKLAHOMA CITY  PTCLDY    74  62  66 S15       29.55R
DALLAS         MOCLDY    75  70  84 S16G24    29.68R
AMARILLO       CLOUDY    60  44  55 NW14      29.75R
$$




USA.gov is the U.S. government's official web portal to all federal, state and local government web resources and services.